Wind_Speed
11 10 7 8 7 7 4 3 11 4 9 12 15 11 15 18 20 16 19 20 19 13 13 18 21 22 23 21 24 26 25 22 22 14 9 6 12 14 17 21 17 20 18 16 17 18 20 20 19
15 17 15 14 14 12 10 9 11 11 17 20 7 11 17 20 24 20 20 20 16 11 12 17 19 21 23 17 20 27 24 23 23 20 12 7 10 11 16 21 19 19 17 19 17 15 10 14 20
15 14 18 20 20 21 18 9 14 15 14 13 10 15 15 20 22 22 18 18 15 8 11 17 21 21 22 22 20 23 19 22 24 24 17 6 8 15 17 20 17 21 21 20 18 18 17 18 22
20 18 18 20 22 21 20 19 16 22 26 18 16 16 13 23 18 18 17 17 16 5 10 16 19 19 21 20 22 20 20 23 25 25 18 13 10 16 18 21 20 19 19 22 19 17 16 17 12
26 26 25 24 22 23 24 22 18 13 15 15 16 14 20 20 17 16 16 12 16 9 11 13 15 19 18 19 22 19 21 24 25 22 20 12 12 15 15 18 18 16 19 22 21 17 16 12 14
28 31 32 28 25 24 22 21 23 23 25 21 25 19 22 22 20 15 13 11 9 8 10 13 16 21 20 15 21 19 20 23 25 20 21 14 11 12 13 15 17 16 17 19 21 12 19 17 15
33 32 32 31 28 25 20 24 26 24 24 21 25 26 19 20 20 13 12 10 7 8 9 14 17 18 14 15 16 22 22 24 26 20 18 15 13 11 10 13 15 16 13 14 20 13 9 14 19
31 31 31 31 28 32 25 26 26 29 27 32 28 19 24 25 20 14 13 8 9 10 11 13 15 16 15 14 15 21 27 27 23 20 21 14 7 11 9 12 12 15 10 8 14 12 14 11 12
36 29 28 29 32 33 33 31 29 28 28 31 29 28 24 24 24 18 19 9 11 13 15 17 19 19 14 13 13 20 30 31 25 22 19 17 11 7 5 5 11 12 8 8 9 12 15 15 15
38 39 36 33 32 32 33 36 33 30 31 32 32 27 25 23 22 19 19 11 13 18 21 14 8 19 17 23 21 18 25 31 30 24 24 18 12 7 5 3 6 11 5 6 6 10 14 14 9
36 35 37 36 38 31 33 34 35 35 33 32 30 26 26 25 23 20 16 7 12 10 4 7 6 13 18 25 26 24 21 30 31 26 19 17 15 9 2 3 7 2 5 7 9 13 8 11 14
36 36 39 41 38 33 31 29 29 32 34 35 30 27 26 26 23 19 14 10 8 15 19 9 7 6 15 20 25 19 17 27 29 24 17 16 14 12 6 4 7 6 7 8 10 12 15 10 10
35 34 36 41 41 33 32 34 36 36 33 32 31 27 27 25 23 16 18 13 9 15 17 10 11 17 13 20 24 16 18 29 27 25 17 11 14 12 5 2 3 6 7 9 9 6 10 13 15
41 37 34 36 34 29 29 30 34 33 32 31 28 26 27 25 23 19 16 15 12 9 15 13 13 18 22 16 15 17 22 26 24 26 18 9 9 12 4 1 5 8 7 7 6 5 8 9 15
45 42 38 36 33 31 30 29 28 26 27 28 25 23 24 25 24 20 20 20 19 20 21 16 9 12 7 11 14 21 22 24 25 21 18 11 8 11 8 3 3 8 3 5 4 2 3 10 9
48 46 44 40 37 36 35 32 30 27 24 24 26 24 21 19 21 20 19 20 21 24 18 14 10 12 10 12 21 24 22 22 24 21 13 13 8 8 11 2 9 8 3 7 1 5 4 4 12
49 49 48 45 42 40 39 36 33 30 27 24 24 28 27 20 19 21 17 19 23 24 18 12 13 13 23 22 26 22 23 22 19 19 20 16 16 10 4 6 9 6 7 7 1 5 5 8 8
41 44 49 49 47 47 44 39 35 34 32 29 26 26 28 28 25 21 15 18 20 18 20 21 20 21 23 26 25 28 23 24 22 20 24 16 13 7 9 6 10 5 8 6 1 5 5 4 4
39 38 40 47 51 50 47 44 40 38 36 33 29 26 26 29 30 28 29 16 14 16 19 23 26 22 23 27 31 32 29 29 19 23 25 13 7 4 9 4 12 8 6 6 1 4 6 5 7
40 41 40 42 42 45 50 49 47 42 39 36 33 30 27 26 30 31 31 26 19 21 21 23 24 25 26 28 26 27 20 23 22 24 14 12 10 6 9 4 13 11 7 7 7 7 4 5 6
37 37 39 42 39 39 39 46 49 48 44 41 37 33 30 27 28 32 33 30 25 24 24 24 24 25 26 25 24 24 25 24 23 24 15 9 11 8 5 4 7 7 7 6 7 9 5 7 9
36 36 36 38 38 38 38 39 42 48 49 45 42 37 32 30 30 28 30 29 26 23 24 22 20 21 23 19 18 21 23 25 27 21 12 11 13 9 7 8 9 9 6 5 5 7 10 11 13
33 34 36 36 37 38 39 38 37 41 47 47 43 41 38 34 31 27 27 26 24 21 22 21 18 15 13 17 19 22 23 23 21 9 14 13 16 10 11 9 11 10 9 6 6 7 8 8 10
33 33 33 34 35 36 38 37 38 39 41 41 43 41 40 34 28 27 24 22 21 19 19 16 18 17 19 19 18 20 16 12 8 14 21 16 19 16 14 11 13 9 10 8 7 8 11 14 12
35 34 32 32 31 31 34 35 39 41 40 37 40 43 39 36 33 30 23 21 20 19 22 22 21 22 20 17 15 14 10 9 9 12 17 15 12 15 15 15 14 14 14 14 12 11 11 13 13
36 36 35 34 33 31 29 33 41 41 40 38 35 40 45 41 37 33 30 29 27 26 26 24 24 21 19 16 13 11 12 9 4 1 7 15 15 15 18 15 14 15 16 15 13 12 12 12 11
37 38 36 33 35 31 30 34 34 41 41 41 37 35 42 44 41 36 32 30 29 29 25 21 18 15 12 10 8 6 6 6 9 7 5 9 10 10 18 22 21 22 22 16 13 13 11 11 12
42 41 37 33 31 31 32 32 31 36 39 41 39 35 38 42 41 38 34 30 31 26 20 18 15 7 7 5 6 5 1 4 11 3 11 13 12 11 12 14 20 22 19 17 16 14 14 12 14
39 38 37 34 31 31 30 31 32 32 37 39 37 35 33 35 39 34 28 25 22 19 19 15 11 5 3 6 12 6 3 2 7 13 18 18 15 17 16 17 14 16 20 15 14 17 21 18 14
36 36 34 33 30 29 31 32 34 33 33 35 36 34 31 29 31 29 20 20 16 17 15 9 8 4 3 11 8 4 3 5 4 10 16 22 19 19 19 18 20 20 15 17 17 19 20 18 20
Wind_Direction
223 241 238 247 271 281 321 80 168 261 324 310 301 317 330 320 336 333 346 346 352 13 9 7 10 3 5 6 0 3 4 353 353 352 3 352 1 1 9 12 24 24 31 31 24 33 33 26 24
242 241 246 249 264 279 290 316 241 253 310 281 279 299 315 321 336 329 338 340 355 13 1 3 10 3 2 358 5 4 3 357 353 355 351 344 17 350 359 7 25 24 32 39 35 47 40 29 29
248 255 256 258 261 265 276 281 248 278 305 262 273 302 310 329 334 337 338 326 347 8 357 357 9 1 1 3 351 359 5 11 357 352 359 13 15 11 15 4 27 26 37 32 48 45 40 36 41
265 268 261 261 265 264 267 266 268 275 283 267 285 297 301 322 326 325 327 326 337 347 354 0 10 360 354 2 354 355 358 8 6 359 3 13 13 15 6 13 17 25 27 32 37 43 52 52 43
267 269 273 274 271 265 260 258 258 264 276 268 294 300 305 317 318 317 314 322 347 328 326 349 1 359 353 358 6 356 358 8 6 4 10 359 12 12 16 18 26 22 22 35 47 61 59 45 37
262 266 271 267 265 264 254 253 248 257 273 254 286 292 299 299 306 308 310 313 336 341 317 347 350 357 354 349 12 8 6 3 17 11 4 358 349 10 7 3 5 5 29 49 51 51 64 60 42
262 266 263 259 255 258 267 256 256 259 260 251 270 297 292 298 292 293 324 323 354 342 331 334 338 356 352 5 3 23 19 11 9 10 10 359 346 346 350 355 356 9 29 53 54 75 82 43 39
265 262 260 258 247 254 267 257 262 269 246 251 267 281 293 290 278 274 301 327 335 314 316 335 345 5 356 0 4 8 18 8 11 11 1 349 343 320 352 355 354 0 36 42 51 58 41 28 9
266 264 259 253 249 252 255 254 254 253 259 254 264 283 284 281 278 278 284 293 323 314 303 303 350 343 349 355 1 3 11 16 18 13 3 359 349 311 320 0 28 9 46 45 56 48 52 41 45
256 260 261 254 253 254 254 249 245 254 261 266 277 283 278 276 279 275 272 309 315 323 342 332 327 345 19 4 5 350 3 3 16 19 14 12 6 359 329 50 35 0 34 25 56 53 61 51 54
252 251 256 258 262 255 251 250 249 257 260 263 274 276 272 274 273 265 271 312 308 308 358 357 324 13 358 347 344 342 0 355 3 17 18 26 17 29 50 52 41 1 47 70 76 70 74 70 60
251 251 253 255 256 256 255 251 246 246 254 265 271 276 274 275 270 265 256 288 320 307 320 309 297 273 312 338 335 339 344 351 359 12 12 32 22 358 9 42 29 126 102 82 104 70 59 70 52
251 251 254 257 257 251 248 250 251 256 263 267 270 268 271 266 267 260 274 282 283 295 307 288 286 278 323 327 334 336 331 346 354 4 1 19 31 10 3 116 96 140 118 89 125 87 50 50 44
251 248 248 253 256 251 250 251 256 258 260 264 267 267 262 260 259 258 278 274 292 282 309 274 290 288 300 313 325 327 321 348 356 353 358 350 26 35 15 93 140 141 116 115 121 55 35 14 32
248 251 250 252 254 256 256 256 256 255 253 255 255 260 267 264 256 263 276 277 270 270 280 276 300 307 288 318 300 303 316 325 349 345 1 330 353 34 20 183 188 168 133 141 119 47 46 53 26
248 247 249 249 250 252 254 256 262 261 256 255 253 251 261 273 270 278 271 283 279 288 281 274 278 313 283 286 282 283 302 288 328 351 352 336 318 28 37 165 156 170 169 154 84 44 48 335 352
248 247 249 250 249 248 250 251 256 262 263 262 255 243 248 261 267 273 264 269 266 276 279 260 273 271 263 263 274 285 294 284 311 346 356 326 333 340 8 176 174 158 165 145 171 18 42 12 341
250 249 249 249 248 246 247 250 253 253 255 257 258 254 246 250 253 264 264 260 261 267 255 241 273 278 272 270 277 291 288 284 293 319 340 329 319 324 331 192 181 175 160 160 238 3 351 251 347
248 248 248 248 246 247 248 246 247 252 254 256 257 258 257 254 251 250 263 269 279 260 260 257 272 277 265 269 277 289 288 293 291 314 322 319 328 319 306 238 192 172 160 185 154 328 315 336 247
249 248 247 248 246 246 246 244 243 244 250 252 253 254 253 258 257 262 268 273 270 279 278 284 286 288 283 278 286 286 281 283 294 311 306 286 297 290 264 182 183 191 192 221 264 319 327 323 300
252 251 248 250 249 250 249 246 243 243 244 248 250 251 253 255 257 257 261 266 274 277 286 288 290 287 285 282 288 286 285 279 285 305 272 251 258 290 252 196 188 203 216 244 263 278 283 300 294
254 251 249 247 245 248 248 248 245 242 243 245 246 249 253 256 260 262 264 270 276 283 285 286 288 286 283 288 294 301 303 279 281 295 241 240 236 255 260 219 208 211 212 213 267 268 260 278 290
253 251 250 249 243 241 240 244 246 243 240 239 243 246 250 252 260 267 271 272 275 280 281 279 284 285 297 310 317 312 304 292 283 213 209 244 228 240 237 228 206 190 211 258 329 283 287 292 307
255 254 254 254 251 244 245 241 243 242 242 239 238 244 248 249 257 264 267 268 271 276 273 274 271 276 297 302 311 315 307 257 257 200 201 209 221 230 234 235 218 235 242 264 282 280 280 292 284
257 255 254 254 253 251 245 244 242 244 243 239 235 236 243 245 250 251 258 267 267 269 269 265 273 289 289 291 313 311 276 255 258 217 203 215 212 227 242 237 246 257 260 267 273 294 286 294 290
258 254 253 250 252 248 248 246 240 243 243 242 237 236 239 243 245 251 254 258 264 266 268 281 289 286 289 302 319 288 252 236 220 187 246 229 226 231 235 232 247 259 275 269 271 282 298 298 304
260 259 255 253 253 252 247 244 243 240 242 239 235 236 237 243 246 248 252 257 258 258 262 275 268 278 297 305 288 263 237 228 170 173 229 201 225 235 248 246 246 260 273 258 278 270 279 281 297
253 255 255 254 256 254 257 250 243 242 238 241 237 232 236 237 241 246 250 256 257 257 261 249 253 255 273 247 199 119 111 147 159 216 252 223 222 219 235 236 261 262 261 262 268 269 259 265 290
253 251 249 249 251 253 251 252 245 240 237 238 240 236 235 235 237 242 246 248 251 248 231 241 253 205 183 185 183 190 92 125 184 213 237 253 249 247 240 242 251 250 240 247 262 275 265 269 268
255 247 245 246 250 252 250 247 245 239 236 235 233 233 234 227 229 238 232 224 210 222 208 191 168 180 211 230 217 197 171 206 234 285 273 253 257 250 258 256 259 265 274 275 275 268 277 277 273
Height
11025 11026 11026 11027 11027 11027 11028 11029 11028 11025 11026 11025 11025 11024 11023 11021 11018 11017 11016 11014 11011 11009 11007 11004 11003 11001 10997 10993 10989 10985 10981 10978 10975 10972 10972 10971 10970 10969 10966 10963 10960 10957 10956 10952 10949 10947 10946 10943 10941
11022 11024 11025 11024 11026 11026 11026 11027 11027 11027 11027 11024 11024 11025 11023 11021 11018 11017 11016 11013 11011 11009 11007 11005 11003 11001 10998 10994 10990 10988 10983 10978 10974 10972 10972 10971 10970 10968 10966 10964 10962 10959 10957 10954 10950 10950 10949 10945 10944
11019 11021 11022 11022 11025 11025 11025 11026 11025 11026 11026 11024 11024 11023 11021 11019 11018 11017 11015 11013 11011 11009 11007 11005 11003 11001 10999 10996 10992 10987 10983 10980 10977 10974 10972 10971 10970 10969 10967 10965 10963 10961 10958 10956 10952 10950 10948 10947 10945
11016 11017 11018 11019 11021 11023 11023 11023 11023 11023 11023 11022 11021 11021 11019 11018 11018 11016 11014 11013 11011 11009 11007 11006 11003 11001 10999 10997 10993 10989 10986 10983 10979 10975 10973 10972 10970 10969 10968 10966 10965 10962 10960 10957 10954 10952 10950 10950 10948
11011 11013 11014 11016 11018 11019 11020 11021 11019 11020 11020 11022 11020 11019 11017 11017 11016 11013 11013 11011 11011 11009 11008 11006 11004 11002 10999 10998 10995 10991 10987 10983 10979 10975 10973 10972 10970 10970 10969 10967 10966 10963 10961 10958 10956 10955 10953 10953 10951
11008 11009 11011 11012 11014 11015 11017 11016 11016 11017 11018 11020 11019 11016 11014 11015 11014 11013 11011 11009 11009 11007 11007 11006 11005 11002 11000 10997 10996 10991 10988 10984 10979 10976 10972 10971 10970 10969 10968 10968 10966 10965 10963 10960 10957 10957 10956 10954 10952
11005 11005 11007 11007 11008 11009 11011 11013 11011 11011 11015 11018 11016 11014 11013 11014 11012 11011 11010 11009 11007 11006 11005 11004 11003 11002 10999 10997 10995 10991 10987 10983 10978 10974 10971 10969 10968 10968 10967 10966 10966 10965 10963 10962 10959 10958 10957 10956 10954
10998 11000 11001 11003 11004 11004 11005 11007 11008 11008 11010 11013 11014 11013 11012 11011 11010 11009 11008 11007 11005 11004 11003 11002 11000 11000 10999 10996 10994 10991 10987 10982 10976 10973 10970 10970 10968 10966 10966 10965 10966 10964 10964 10963 10961 10959 10959 10957 10955
10993 10995 10996 10998 10999 11000 11003 11003 11003 11002 11004 11006 11010 11011 11010 11010 11009 11008 11007 11005 11003 11002 11000 10999 11000 10999 10997 10995 10993 10991 10988 10983 10978 10974 10971 10968 10965 10966 10966 10967 10967 10965 10964 10963 10962 10961 10959 10959 10957
10986 10988 10991 10993 10995 10997 10999 10999 11000 10998 10999 11001 11004 11006 11005 11005 11004 11004 11003 11002 11001 11001 11000 10998 10997 10997 10995 10994 10992 10991 10988 10983 10978 10973 10969 10965 10963 10964 10965 10966 10966 10965 10966 10964 10963 10962 10959 10959 10959
10982 10982 10983 10987 10991 10996 10994 10995 10995 10995 10995 10997 11001 11001 11002 11002 11001 11001 11001 11001 11000 10999 10998 10998 10997 10997 10994 10993 10992 10990 10987 10984 10980 10973 10970 10965 10963 10964 10965 10965 10965 10965 10966 10965 10965 10964 10963 10963 10962
10977 10979 10978 10979 10986 10990 10989 10990 10992 10993 10993 10994 10995 10997 10997 10998 11000 10999 10999 11000 10998 10996 10995 10996 10996 10995 10993 10993 10991 10989 10986 10984 10980 10975 10971 10967 10964 10963 10963 10964 10965 10965 10966 10967 10966 10966 10965 10964 10963
10969 10973 10973 10974 10982 10984 10985 10986 10988 10989 10989 10990 10991 10994 10993 10994 10996 10997 10997 10998 10996 10994 10994 10994 10993 10992 10991 10991 10990 10988 10985 10984 10981 10976 10971 10969 10965 10963 10964 10964 10964 10966 10967 10968 10968 10968 10967 10966 10964
10961 10968 10970 10970 10975 10978 10979 10979 10980 10985 10986 10986 10986 10988 10989 10991 10993 10996 10996 10994 10994 10994 10992 10992 10992 10990 10990 10990 10989 10987 10985 10983 10981 10977 10973 10970 10966 10964 10965 10965 10966 10967 10968 10969 10969 10968 10968 10967 10966
10955 10961 10965 10966 10968 10971 10972 10974 10977 10980 10982 10982 10983 10985 10985 10987 10990 10991 10992 10992 10993 10992 10991 10990 10990 10989 10988 10987 10987 10984 10982 10982 10979 10977 10974 10971 10967 10965 10965 10966 10966 10967 10968 10969 10969 10969 10968 10969 10967
10949 10953 10957 10960 10963 10964 10966 10968 10973 10976 10978 10980 10981 10983 10983 10985 10987 10989 10990 10988 10988 10988 10989 10987 10987 10986 10984 10984 10981 10982 10981 10981 10979 10977 10974 10971 10968 10966 10965 10966 10965 10968 10968 10969 10970 10970 10970 10968 10968
10940 10945 10948 10952 10957 10957 10958 10963 10967 10971 10974 10975 10976 10978 10979 10981 10981 10983 10985 10987 10985 10984 10985 10984 10986 10984 10980 10978 10978 10979 10978 10979 10978 10975 10972 10970 10969 10966 10965 10967 10967 10968 10969 10969 10970 10970 10970 10970 10970
10932 10937 10940 10943 10945 10947 10951 10957 10962 10964 10966 10969 10971 10972 10975 10976 10977 10979 10980 10982 10982 10981 10981 10980 10981 10979 10976 10975 10975 10976 10975 10975 10976 10974 10972 10970 10968 10966 10966 10966 10967 10968 10969 10970 10971 10971 10970 10970 10970
10923 10926 10929 10930 10934 10940 10944 10949 10954 10956 10959 10963 10966 10968 10970 10971 10972 10974 10975 10978 10977 10977 10977 10977 10977 10975 10973 10973 10972 10972 10971 10971 10971 10971 10969 10968 10967 10967 10966 10965 10967 10967 10969 10970 10971 10971 10970 10970 10970
10913 10916 10919 10919 10924 10929 10932 10939 10944 10949 10952 10955 10959 10963 10965 10967 10967 10969 10971 10973 10974 10973 10973 10971 10971 10970 10969 10969 10967 10966 10966 10965 10966 10967 10965 10964 10965 10965 10965 10965 10965 10967 10968 10969 10970 10970 10970 10970 10970
10904 10907 10911 10912 10919 10921 10924 10928 10934 10940 10944 10947 10951 10955 10958 10962 10962 10963 10965 10967 10967 10968 10967 10968 10967 10965 10965 10964 10962 10962 10960 10961 10962 10961 10961 10960 10961 10963 10964 10965 10965 10966 10968 10968 10969 10969 10969 10968 10968
10895 10899 10901 10902 10908 10912 10916 10918 10922 10928 10934 10938 10943 10948 10952 10956 10955 10956 10958 10960 10962 10963 10963 10962 10962 10961 10961 10961 10959 10957 10955 10955 10955 10956 10956 10956 10958 10960 10961 10962 10963 10964 10966 10967 10967 10967 10967 10967 10967
10886 10888 10890 10893 10897 10901 10905 10910 10914 10916 10920 10928 10935 10940 10944 10946 10948 10949 10951 10953 10955 10957 10957 10957 10957 10956 10955 10954 10951 10950 10950 10948 10947 10950 10953 10953 10955 10958 10959 10960 10962 10962 10964 10965 10965 10965 10966 10967 10967
10880 10882 10884 10887 10890 10894 10898 10902 10904 10905 10910 10920 10927 10931 10934 10938 10941 10943 10946 10947 10948 10950 10952 10952 10951 10950 10949 10948 10946 10945 10944 10943 10944 10946 10949 10951 10953 10955 10957 10958 10959 10961 10962 10962 10963 10963 10963 10964 10963
10872 10875 10877 10879 10882 10887 10890 10896 10895 10897 10901 10909 10917 10923 10926 10930 10934 10937 10940 10942 10943 10945 10947 10947 10946 10945 10944 10943 10941 10939 10940 10942 10942 10943 10944 10947 10950 10953 10954 10956 10957 10958 10958 10959 10960 10960 10960 10961 10960
10863 10864 10867 10871 10874 10877 10883 10884 10885 10889 10894 10899 10906 10913 10918 10921 10926 10930 10932 10935 10937 10938 10938 10938 10939 10938 10938 10936 10936 10937 10939 10940 10941 10942 10944 10945 10947 10948 10949 10951 10953 10954 10955 10955 10956 10957 10956 10957 10957
10856 10857 10861 10864 10866 10871 10873 10873 10880 10881 10884 10889 10896 10903 10908 10912 10917 10922 10925 10928 10929 10929 10932 10933 10932 10933 10933 10934 10935 10936 10936 10938 10938 10940 10943 10940 10943 10944 10947 10948 10949 10950 10951 10951 10951 10952 10952 10953 10953
10847 10850 10854 10858 10861 10864 10866 10868 10870 10874 10877 10881 10888 10895 10899 10903 10908 10911 10917 10920 10922 10924 10927 10926 10926 10926 10927 10930 10933 10931 10932 10933 10936 10938 10940 10937 10939 10941 10941 10944 10945 10946 10947 10947 10948 10948 10949 10949 10949
10838 10842 10847 10851 10853 10855 10858 10859 10861 10864 10868 10874 10881 10888 10894 10897 10901 10906 10911 10914 10916 10918 10920 10921 10922 10922 10924 10927 10928 10928 10928 10930 10932 10934 10935 10936 10937 10938 10940 10940 10940 10942 10943 10942 10943 10944 10945 10945 10945
10831 10835 10840 10843 10846 10849 10850 10849 10851 10855 10860 10868 10876 10881 10885 10891 10895 10902 10907 10909 10912 10916 10917 10916 10917 10919 10920 10921 10923 10923 10924 10927 10928 10928 10930 10931 10932 10933 10934 10936 10937 10937 10937 10937 10939 10939 10939 10940 10941